Regional Weather Roundup
Issued by NWS

Home | Current Version | Previous Version | Graphics & Text | Print | Product List | Glossary On
Versions: 1 2 3 4 5 6 7 8 9 10 11 12 13 14 15 16 17 18 19 20 21 22 23 24 25 26 27 28 29 30 31 32 33 34 35 36 37 38 39 40 41 42 43 44 45 46 47 48 49 50
000
ASUS43 KBIS 311402
RWRND

NORTH DAKOTA REGIONAL WEATHER ROUNDUP
NATIONAL WEATHER SERVICE BISMARCK ND
900 AM CDT MON AUG 31 2015

NOTE: "FAIR" INDICATES FEW OR NO CLOUDS BELOW 12,000 FEET WITH NO
SIGNIFICANT WEATHER AND/OR OBSTRUCTIONS TO VISIBILITY.


NDZ001>003-009>011-017-311500-
NORTHWEST NORTH DAKOTA

CITY           SKY/WX    TMP DP  RH WIND       PRES   REMARKS
WILLISTON      SUNNY     61  49  64 SW10      29.86R
MINOT          PTSUNNY   63  53  70 W7        29.79R
MINOT AFB      MOSUNNY   62  60  91 W6        29.78R
$$

NDZ018>021-031>035-040>046-311500-
SOUTHWEST NORTH DAKOTA

CITY           SKY/WX    TMP DP  RH WIND       PRES   REMARKS
BISMARCK       CLOUDY    68  58  70 NW14G23   29.82R
DICKINSON      SUNNY     60  52  74 NW9       29.89R
GARRISON         N/A     64  57  78 N6        29.83R
HETTINGER ARPT PTSUNNY   60  51  72 NW16      29.91R
$$

NDZ004>008-012>016-024-026-027-054-311500-
NORTHEAST NORTH DAKOTA

CITY           SKY/WX    TMP DP  RH WIND       PRES   REMARKS
GRAND FORKS    CLOUDY    66  61  84 S9        29.65F
GRND FRKS AFB  CLOUDY    67  63  87 S10       29.66R
DEVILS LAKE    CLOUDY    66  57  72 N8        29.72R
$$

NDZ022-023-025-028>030-036>039-047>053-311500-
SOUTHEAST NORTH DAKOTA

CITY           SKY/WX    TMP DP  RH WIND       PRES   REMARKS
FARGO          SUNNY     70  61  73 S8        29.70R
JAMESTOWN      CLOUDY    69  64  84 SW7       29.71R
$$




USA.gov is the U.S. government's official web portal to all federal, state and local government web resources and services.